Regional Weather Roundup
Issued by NWS

Home | Current Version | Previous Version | Graphics & Text | Print | Product List | Glossary On
Versions: 1 2 3 4 5 6 7 8 9 10 11 12 13 14 15 16 17 18 19 20 21 22 23 24 25 26 27
000
ASUS45 KBOI 180710
RWRID

IDAHO REGIONAL WEATHER ROUNDUP
NATIONAL WEATHER SERVICE BOISE ID
100 AM MDT WED OCT 18 2017

NOTE: "FAIR" INDICATES FEW OR NO CLOUDS BELOW 12000 FEET
WITH NO SIGNIFICANT WEATHER AND/OR OBSTRUCTIONS TO VISIBILITY

IDZ012-014-180800-
SOUTHWEST IDAHO


CITY           SKY/WX    TMP DP  RH WIND       PRES   REMARKS
BOISE          CLEAR     44  31  60 SE5       30.12S
CALDWELL       CLEAR     39  32  76 NW3       30.13S HAZE
MOUNTAIN HOME  CLEAR     39  26  58 CALM      30.11F
$$

IDZ016-017-180800-
SOUTHCENTRAL IDAHO


CITY           SKY/WX    TMP DP  RH WIND       PRES   REMARKS
BURLEY         CLEAR     39  23  52 SW5       30.14S
JEROME         CLEAR     52  25  35 CALM      30.15S
TWIN FALLS     CLEAR     48  23  37 S12       30.15S
$$

IDZ019>023-180800-
SOUTHEAST IDAHO


CITY           SKY/WX    TMP DP  RH WIND       PRES   REMARKS
IDAHO FALLS    CLEAR     47  26  44 S13       30.12S
POCATELLO      CLEAR     54  22  28 S14       30.14S
REXBURG        CLOUDY    49  23  36 SW3       30.13R
$$

IDZ006-010-011-018-031-032-180800-
CENTRAL IDAHO MOUNTAINS


CITY           SKY/WX    TMP DP  RH WIND       PRES   REMARKS
MCCALL         PTCLDY    34  28  79 CALM      30.14F
HAILEY         CLEAR     37  25  60 NW9       30.18S WCI  31
STANLEY          N/A     36  22  56 S6        30.22S WCI  31
SALMON         CLOUDY    34  27  75 CALM      30.07R
CHALLIS        CLEAR     46  23  40 SW9       30.12S
$$

IDZ002-004-006-007-026-180800-
NORTHERN IDAHO


CITY           SKY/WX    TMP DP  RH WIND       PRES   REMARKS
LEWISTON       CLOUDY    56  43  61 W9        30.08F
LOWELL           N/A     45  44  97 SW3       30.11F
COEUR D`ALENE  CLOUDY    45  23  42 SW7       30.06S
MULLAN PASS    MOCLDY    35  15  44 W9G17     30.04R WCI  28
$$




USA.gov is the U.S. government's official web portal to all federal, state and local government web resources and services.